Weather History for KSFF - November, 2013

Change the Weather History Date:

Sunday, November 3, 2013

  Actual Average Record
Temperature  
Mean Temperature 38 °F 41 °F  
Max Temperature 44 °F 50 °F 61 °F (2001)
Min Temperature 32 °F 33 °F 18 °F (2002)
Degree Days  
Heating Degree Days 27 24  
Month to date heating degree days 67 70  
Since 1 July heating degree days 761 807  
Cooling Degree Days 0 0  
Month to date cooling degree days 0 0  
Year to date cooling degree days 704 406  
Moisture  
Dew Point 31 °F    
Average Humidity 71    
Maximum Humidity 92    
Minimum Humidity 49    
Precipitation  
Precipitation 0.03 in 0.07 in 0.28 in (2012)
Month to date precipitation 0.34 0.19  
Year to date precipitation 12.20 13.14  
Sea Level Pressure  
Sea Level Pressure 29.92 in    
Wind  
Wind Speed 7 mph (WSW)    
Max Wind Speed 20 mph    
Max Gust Speed 24 mph    
Visibility 9 miles    
Events Snow    
T = Trace of Precipitation, MM = Missing Value Source: NWS Daily Summary

Daily Weather History Graph

Daily Weather History Graph

Search for Another Location

Airport or City:

Trip Planner

Search our weather history database for the weather conditions in past years. The results will help you decide how hot, cold, wet, or windy it might be!

Date:

Astronomy

Nov. 03, 2013 Rise Set
Actual Time 6:37 AM PST 4:27 PM PST
Civil Twilight 6:04 AM PST 5:00 PM PST
Nautical Twilight 5:27 AM PST 5:37 PM PST
Astronomical Twilight 4:52 AM PST 6:12 PM PST
Moon 6:47 AM PST 4:43 PM PST
Length of Visible Light 10h 55m
Length of Day
9h 50m
New Moon, 0% of the Moon is Illuminated
Nov 3
New Moon
Nov 9
First Quarter
Nov 17
Full
Nov 25
Last Quarter
Dec 2
New

Hourly Weather History & Observations

Time (PST) Temp. Windchill Dew Point Humidity Pressure Visibility Wind Dir Wind Speed Gust Speed Precip Events Conditions
12:53 AM 39.0 °F 32.8 °F 30.9 °F 73% 29.80 in 10.0 mi WSW 9.2 mph - N/A   Overcast
1:53 AM 39.0 °F 31.4 °F 30.0 °F 70% 29.81 in 10.0 mi SW 12.7 mph 20.7 mph N/A   Overcast
1:53 AM 39.0 °F 30.6 °F 28.0 °F 65% 29.81 in 10.0 mi SW 15.0 mph 20.7 mph N/A   Overcast
2:53 AM 37.9 °F 31.5 °F 28.9 °F 70% 29.82 in 10.0 mi WSW 9.2 mph 20.7 mph N/A   Overcast
3:53 AM 37.0 °F 31.0 °F 28.9 °F 73% 29.83 in 10.0 mi WSW 8.1 mph - N/A   Overcast
4:53 AM 37.0 °F 30.4 °F 30.0 °F 76% 29.86 in 10.0 mi WSW 9.2 mph - N/A   Overcast
5:21 AM 37.4 °F 33.8 °F 30.2 °F 75% 29.84 in 10.0 mi WSW 4.6 mph - N/A   Overcast
5:53 AM 37.0 °F 30.4 °F 30.0 °F 76% 29.87 in 10.0 mi SW 9.2 mph - N/A   Overcast
6:53 AM 35.1 °F 30.1 °F 32.0 °F 89% 29.89 in 4.0 mi WSW 5.8 mph - 0.01 in Snow Light Snow
7:53 AM 35.1 °F 31.0 °F 32.0 °F 89% 29.92 in 3.0 mi WSW 4.6 mph - 0.01 in Snow Light Snow
8:53 AM 35.1 °F 30.1 °F 33.1 °F 92% 29.93 in 7.0 mi WSW 5.8 mph - 0.01 in Snow Light Snow
9:10 AM 35.6 °F 28.6 °F 33.8 °F 93% 29.89 in 9.0 mi SW 9.2 mph - 0.00 in   Overcast
9:21 AM 35.6 °F 29.2 °F 33.8 °F 93% 29.90 in 10.0 mi SW 8.1 mph - 0.00 in   Overcast
9:29 AM 35.6 °F 29.9 °F 33.8 °F 93% 29.90 in 10.0 mi SW 6.9 mph - 0.00 in   Overcast
9:53 AM 37.0 °F 33.3 °F 33.1 °F 86% 29.94 in 10.0 mi West 4.6 mph - 0.00 in   Overcast
10:00 AM 37.4 °F 33.8 °F 33.8 °F 87% 29.91 in 10.0 mi WSW 4.6 mph - N/A   Overcast
10:53 AM 39.0 °F 32.8 °F 33.1 °F 79% 29.95 in 10.0 mi WSW 9.2 mph - N/A   Overcast
11:53 AM 41.0 °F 34.7 °F 33.1 °F 73% 29.95 in 10.0 mi SW 10.4 mph - N/A   Mostly Cloudy
12:53 PM 42.1 °F 34.2 °F 30.9 °F 65% 29.94 in 10.0 mi WSW 16.1 mph 20.7 mph N/A   Mostly Cloudy
1:53 PM 42.1 °F 34.9 °F 30.0 °F 62% 29.95 in 10.0 mi WSW 13.8 mph - N/A   Overcast
2:53 PM 43.0 °F 37.7 °F 28.9 °F 58% 29.96 in 10.0 mi WSW 9.2 mph - N/A   Mostly Cloudy
3:53 PM 43.0 °F 37.7 °F 24.1 °F 47% 29.97 in 10.0 mi West 9.2 mph - N/A   Mostly Cloudy
4:53 PM 37.0 °F 32.4 °F 28.9 °F 73% 29.99 in 10.0 mi SW 5.8 mph - N/A   Mostly Cloudy
5:53 PM 37.9 °F 35.5 °F 30.0 °F 73% 30.00 in 10.0 mi West 3.5 mph - N/A   Overcast
6:53 PM 37.0 °F 34.5 °F 30.0 °F 76% 30.00 in 10.0 mi ENE 3.5 mph - N/A   Overcast
7:53 PM 35.1 °F - 30.0 °F 82% 30.01 in 10.0 mi Calm Calm - N/A   Partly Cloudy
8:53 PM 33.1 °F - 28.9 °F 85% 30.01 in 10.0 mi Calm Calm - N/A   Overcast
9:53 PM 33.1 °F - 30.0 °F 89% 30.02 in 10.0 mi Calm Calm - N/A   Overcast
10:53 PM 34.0 °F - 30.0 °F 85% 30.01 in 10.0 mi Calm Calm - N/A   Overcast